Tracking 29781 objects as of 16-Oct-2024
HD Live streaming from Space Station
objects crossing your sky now

COSMOS 489

Track COSMOS 489 now!
10-day predictions
COSMOS 489 is classified as:


NORAD ID: 6019
Int'l Code: 1972-035A
Perigee: 966.7 km
Apogee: 1,003.3 km
Inclination: 74.0 °
Period: 104.6 minutes
Semi major axis: 7355 km
RCS: 1.7983 m2 (large)
Launch date: May 6, 1972
Source: Commonwealth of Independent States (former USSR) (CIS)
Launch site: PLESETSK MISSILE AND SPACE COMPLEX (PKMTR)
Your satellite tracking list
Your tracking list is empty




NASA's NSSDC Master Catalog

Two Line Element Set (TLE):
1 06019U 72035A   24289.36354277  .00000112  00000-0  13870-3 0  9991
2 06019  74.0181 260.9236 0024917 329.1916 138.2532 13.76074447632997
Source of the keplerian elements: AFSPC